Lid_Strength_Index
5 5 5 7 8 6 8 8 10 9 9 8 6 7 6 5 5 4 4 4 4 3 3 2 2 2 2 1 1 2 0 -0
5 5 5 7 5 9 8 12 13 10 9 11 9 8 7 7 6 6 5 5 4 3 3 2 1 1 1 1 1 2 2 0
6 7 7 7 7 7 7 8 11 12 11 7 8 7 8 8 7 6 6 5 5 4 3 2 2 2 3 3 3 2 1 0
7 5 5 5 7 7 9 10 9 9 10 6 6 7 8 7 7 8 8 7 6 5 3 3 3 4 4 4 4 4 3 2
9 7 6 7 6 6 6 7 9 10 11 6 6 7 6 7 7 8 8 8 7 6 6 6 6 6 6 6 5 5 5 5
10 9 7 8 7 6 7 9 9 9 10 8 8 8 7 7 8 8 7 6 6 6 6 6 6 6 7 6 5 5 5 4
7 7 7 7 7 7 8 7 9 8 8 8 8 7 6 6 6 7 7 7 6 5 5 4 4 4 4 3 3 4 3 3
8 7 7 8 7 7 7 7 7 7 7 6 5 5 6 5 5 6 6 6 5 5 5 4 4 4 3 2 2 1 1 2
9 7 8 9 7 7 7 6 6 8 7 6 6 6 6 5 4 4 6 5 5 5 4 4 4 4 4 3 3 2 1 1
9 9 13 8 6 6 7 6 6 6 6 5 6 5 4 3 4 5 6 5 5 4 4 4 3 3 2 2 1 1 1 1
10 10 9 8 7 7 7 8 6 6 6 5 5 4 4 3 2 5 5 4 4 4 4 3 3 2 1 1 1 1 1 0
9 12 13 9 6 4 5 9 5 5 6 5 5 8 6 3 2 3 3 2 3 3 2 1 0 0 1 1 1 1 0 0
10 11 9 6 5 4 10 10 5 4 5 5 6 5 3 2 2 2 1 2 2 2 1 0 -0 0 1 1 1 0 -0 -0
9 10 12 4 5 8 6 4 4 4 4 4 4 3 3 3 2 2 2 2 1 1 1 0 0 0 1 1 -0 -0 -0 0
9 9 5 4 4 4 4 4 3 3 3 3 3 3 3 3 2 2 2 1 1 1 1 0 -0 -0 1 0 -0 -0 0 1
7 6 5 4 4 3 3 3 3 3 3 3 3 3 3 3 2 2 2 2 1 1 1 1 0 0 0 -0 -0 0 1 0
7 5 5 4 3 3 3 3 3 2 2 3 3 3 3 2 2 2 1 1 1 1 1 1 0 0 -0 -0 -0 1 1 0
7 5 5 4 3 3 3 3 3 3 3 2 2 2 2 2 1 1 1 1 1 1 1 1 0 0 -0 -0 -0 0 1 1
4 3 3 3 3 3 3 3 2 2 2 2 2 2 2 2 1 1 1 1 1 1 1 0 0 0 -0 -1 -0 0 1 1